[TLELIST] Archives

 

Current TLEs

November 11th 2007 PDT

HST 1 20580U 90037B 07313.36237474 .00000321 00000-0 12038-4 0 01 2 20580 028.4692 323.4117 0003776 196.5420 163.5044 15.00300022761784 ISS (ZARYA) 1 25544U 98067A 07313.90157527 .00013990 00000-0 92095-4 0 3210 2 25544 051.6409 072.5755 0002101 158.4653 299.8274 15.75991100513765 CXO 1 25867U 99040B 07313.12500000 .00000453 00000-0 10000-3 0 1327 2 25867 062.6596 086.0468 6444634 281.7526 002.4682 00.37804176 2794 ____________________________________________________________________ These 2-Line ...Continue Reading

Current TLEs

November 10th 2007 PDT

HST 1 20580U 90037B 07311.43322260 +.00000340 +00000-0 +13487-4 0 00083 2 20580 028.4688 335.9916 0003877 177.8644 182.1959 15.00299464761493 ISS (ZARYA) 1 25544U 98067A 07312.95135537 .00014814 00000-0 97374-4 0 3177 2 25544 051.6405 077.4690 0002595 161.2450 302.3284 15.75966340513610 CXO 1 25867U 99040B 07313.12500000 .00000453 00000-0 10000-3 0 1327 2 25867 062.6596 086.0468 6444634 281.7526 002.4682 00.37804176 2794 ____________________________________________________________________ These 2-Line ...Continue Reading

Current TLEs

November 9th 2007 PDT

HST 1 20580U 90037B 07312.23149193 .00000356 00000-0 14747-4 0 9990 2 20580 028.4688 330.7862 0003912 186.3773 173.6766 15.00299893761615 ISS (ZARYA) 1 25544U 98067A 07312.37103628 .00010588 00000-0 70905-4 0 3141 2 25544 051.6404 080.4603 0002856 160.0233 248.8801 15.75931877513529 CXO 1 25867U 99040B 07313.12500000 .00000453 00000-0 10000-3 0 1327 2 25867 062.6596 086.0468 6444634 281.7526 002.4682 00.37804176 2794 ____________________________________________________________________ These 2-Line ...Continue Reading

Current TLEs

November 8th 2007 PDT

HST 1 20580U 90037B 07309.50407017 +.00000399 +00000-0 +18115-4 0 00023 2 20580 028.4682 348.5706 0003838 156.8197 203.2569 15.00299054761207 ISS (ZARYA) 1 25544U 98067A 07311.41791212 .00026249 00000-0 16940-3 0 3090 2 25544 051.6369 085.3634 0002242 152.6061 245.2706 15.75932684513377 CXO 1 25867U 99040B 07310.45833333 .00000437 00000-0 10000-3 0 1319 2 25867 062.6443 086.0866 6440096 281.8144 359.3835 00.37804954 2789 ____________________________________________________________________ These 2-Line ...Continue Reading

Current TLEs

November 7th 2007 PDT

HST 1 20580U 90037B 07308.57275435 +.00000428 +00000-0 +20369-4 0 00067 2 20580 028.4680 354.6433 0003860 147.8428 212.2399 15.00298819761065 ISS (ZARYA) 1 25544U 98067A 07310.41255948 .00001329 00000-0 12543-4 0 3043 2 25544 051.6405 090.5487 0003148 158.9514 291.3938 15.75855918513216 CXO 1 25867U 99040B 07310.45833333 .00000437 00000-0 10000-3 0 1319 2 25867 062.6443 086.0866 6440096 281.8144 359.3835 00.37804954 2789 ____________________________________________________________________ These 2-Line ...Continue Reading

Current TLEs

November 6th 2007 PDT

HST 1 20580U 90037B 07309.23797947 .00000412 00000-0 19087-4 0 9975 2 20580 028.4681 350.3063 0003862 155.0023 205.0744 15.00299050761165 ISS (ZARYA) 1 25544U 98067A 07309.46263649 -.00000566 00000-0 53445-6 0 2997 2 25544 051.6405 095.4363 0002544 158.0286 299.6781 15.75844028513069 CXO 1 25867U 99040B 07307.83333333 .00000408 00000-0 10000-3 0 1309 2 25867 062.6323 086.1443 6436535 281.8643 001.9701 00.37804524 2779 ____________________________________________________________________ These 2-Line ...Continue Reading

Current TLEs

November 5th 2007 PDT

HST 1 20580U 90037B 07306.44403183 .00000414 00000-0 19267-4 0 9951 2 20580 028.4680 008.5257 0003783 128.9461 231.1472 15.00297666760740 ISS (ZARYA) 1 25544U 98067A 07307.05401741 .00012457 00000-0 82972-4 0 2847 2 25544 051.6390 107.8398 0002925 158.2837 305.9778 15.75849471512686 CXO 1 25867U 99040B 07307.83333333 .00000408 00000-0 10000-3 0 1309 2 25867 062.6323 086.1443 6436535 281.8643 001.9701 00.37804524 2779 ____________________________________________________________________ These 2-Line ...Continue Reading

Current TLEs

November 4th 2007 PDT

HST 1 20580U 90037B 07306.44403183 .00000414 00000-0 19267-4 0 9951 2 20580 028.4680 008.5257 0003783 128.9461 231.1472 15.00297666760740 ISS (ZARYA) 1 25544U 98067A 07307.05401741 .00012457 00000-0 82972-4 0 2847 2 25544 051.6390 107.8398 0002925 158.2837 305.9778 15.75849471512686 CXO 1 25867U 99040B 07307.83333333 .00000408 00000-0 10000-3 0 1309 2 25867 062.6323 086.1443 6436535 281.8643 001.9701 00.37804524 2779 ____________________________________________________________________ These 2-Line ...Continue Reading

Current TLEs

November 3rd 2007 PDT

HST 1 20580U 90037B 07304.58139731 .00000400 00000-0 18227-4 0 9948 2 20580 028.4679 020.6713 0003663 112.4303 247.6677 15.00296666760467 ISS (ZARYA) 1 25544U 98067A 07306.48489980 .00023602 00000-0 15333-3 0 2787 2 25544 051.6389 110.7723 0003515 157.0737 316.3948 15.75846604512591 CXO 1 25867U 99040B 07305.16666667 .00000355 00000-0 10000-3 0 1291 2 25867 062.6264 086.2143 6430985 281.9181 358.8923 00.37800517 2769 ____________________________________________________________________ These 2-Line ...Continue Reading

Current TLEs

November 2nd 2007 PDT

HST 1 20580U 90037B 07304.58139731 .00000400 00000-0 18227-4 0 9948 2 20580 028.4679 020.6713 0003663 112.4303 247.6677 15.00296666760467 ISS (ZARYA) 1 25544U 98067A 07305.53034863 -.00008908 00000-0 -52537-4 0 2724 2 25544 051.6365 115.6852 0002809 151.6466 303.0222 15.75794435512442 CXO 1 25867U 99040B 07305.16666667 .00000355 00000-0 10000-3 0 1291 2 25867 062.6264 086.2143 6430985 281.9181 358.8923 00.37800517 2769 ____________________________________________________________________ These 2-Line ...Continue Reading
  • This mailing list is a public mailing list - anyone may join or leave, at any time.
  • This mailing list is announce-only.

International Space Station (ISS) / Hubble Space Telescope (HST) / Chandra X-Ray Observatory Orbital Data via EMAIL

Privacy Policy:

Private list